STARLINK-4431, 53486

Orbit data source: Space-Track

STARLINK-4431, 53486 is a payload satellite owned by SpaceX/Seattle (US) in SSO that was launched on Fri, 12 Aug 2022 UTC via an FALCON 9 launch vehicle from the Air Force Western Test Range (AFWTR). Payload-class satellites include a variety of spacecraft equipped with specific instruments for various scientific and technological missions. These include communications satellites like Starlink; space stations such as the ISS; scientific satellites like the Hubble; Earth observation satellites from companies like Planet Labs, Umbra, and HawkEye 360; GPS; miniature CubeSats for education and research; and military/defense satellites.

Loading next visibility...
Identifier
53486, 2022-099X
Orbit
SSO
Country
Flag of USUS
Related business
Manufacturer
SpaceX/Seattle
Mission
Operational Commercial Communications
Bus & Motor
STARLINK, Unknown motor
Mass
300 kg wet, ~275 kg dry
Launch date (UTC)
2022-08-12 (3 years ago)
Launch vehicle
FALCON 9
Launch site
Air Force Western Test Range (AFWTR)
Object type
Payload
Rocket body
Debris
Shape & HBR
Box + 1 Pan, 10.1 m
Radar Cross Section
13.562 m², Large (>1 m²)

Expand to show TLE details & history
Last TLE update: 11 hours ago

TLE from 11 hours ago
0 STARLINK-4431
1 53486U 22099X   25346.91851787 -.00000851  00000-0 -61703-4 0  9991
2 53486  97.6010 105.2611 0000627  89.1742 270.9554 15.01256766182960
Epoch: 2025-12-12T22:02Z
TLE epoch observation values (Epoch: 2025-12-12T22:02:39.943Z)
Latitude
-0.00008°
Longitude
52.74144°
Altitude
566.072 km
Speed
7.578 km/s
True Right ascension
07h 01m 02s
True Declination
0° 00' 00"
Sunlit
Object was in full shadow at epoch
Visualization orbit readout
Latitude
Unknown
Longitude
Unknown
Altitude
Unknown
Speed
Unknown
Apparent Right ascension
Unknown
Apparent Declination
Unknown
Sunlit
N/A
Visualization observer readout
Local Sidereal Time
07:34:24
Azimuth
Unknown
Elevation
Unknown
Doppler factor
Unknown
Orbital elements
Apogee altitude
560.454 km
Perigee altitude
559.584 km
Semi-major axis
6,938.156 km
Eccentricity
0.00006
Inclination
97.601°
RAAN
105.2611°
Arg. of periapsis
89.1742°
True anomaly
270.94822°
Mean anomaly
270.9554°
Eccentric anomaly
270.95181°
Mean motion
3.75558 °/min
Orbital period
95.86 mins
BSTAR
-0.000061703
Loading maneuver chart data...
Computing Atmospheric mass density...
Loading historical data...
Loading historical data...
Loading historical data...
Loading historical data...
Loading historical data...
Loading historical data...
Loading historical data...

Documentation

Showing up to 5 results
|